Regional Weather Roundup
Issued by NWS

Home | Current Version | Previous Version | Text Only | Print | Product List | Glossary On
Versions: 1 2 3 4 5 6 7 8 9 10 11 12 13 14 15 16 17 18 19 20 21 22 23 24 25 26 27 28 29 30 31 32 33 34 35 36 37 38 39 40 41 42 43 44 45 46 47 48 49 50
000
ASUS43 KTOP 241259
RWRKS

WEATHER ROUNDUP FOR KANSAS
NATIONAL WEATHER SERVICE GOODLAND KS
700 AM CST FRI FEB 24 2017

NOTE:  "FAIR" INDICATES FEW OR NO CLOUDS BELOW 12,000 FEET WITH NO
SIGNIFICANT WEATHER AND/OR OBSTRUCTIONS TO VISIBILITY.

KSZ001>006-013>018-027>032-041>047-241400-
NORTHWEST KANSAS

CITY           SKY/WX    TMP DP  RH WIND       PRES   REMARKS
GOODLAND       LGT SNOW  20  18  92 N21       29.85R WCI   4
HAYS           CLOUDY    28  24  85 NW18      29.83R WCI  15
HILL CITY      LGT SNOW  26  24  92 NW14      29.85R FOG     WCI  14
RUSSELL        CLOUDY    28  25  88 NW16      29.80R WCI  16
$$

KSZ061>065-074>080-084>089-241400-
SOUTHWEST KANSAS

CITY           SKY/WX    TMP DP  RH WIND       PRES   REMARKS
DODGE CITY     CLEAR     24  19  81 NW16      29.83R WCI  11
ELKHART          N/A     21   8  57 NW12        N/A  WCI   9
GARDEN CITY    CLOUDY    26  17  68 NW18G24   29.85R WCI  13
GREAT BEND     CLOUDY    30  24  78 NW15      29.81R WCI  19
LIBERAL        CLEAR     25  12  58 NW10      29.87R WCI  15
$$

KSZ066>073-081>083-090>101-241400-
SOUTHEAST KANSAS

CITY           SKY/WX    TMP DP  RH WIND       PRES   REMARKS
CHANUTE        CLOUDY    38  32  79 NW13G23   29.70R WCI  30
COFFEYVILLE    CLOUDY    40  33  76 NW20G25   29.73R WCI  30
HUTCHINSON     CLOUDY    33  25  72 NW22G29   29.77R WCI  21
MEDICINE LODGE   N/A     30  23  75 NW14G21   29.81R WCI  19
NEWTON         CLOUDY    33  26  75 NW22      29.74R WCI  21
PARSONS        CLOUDY    40  33  76 NW16      29.72R WCI  31
WICHITA INTL   CLOUDY    35  26  69 NW22G31   29.76R WCI  23
WICHITA JABRA  CLOUDY    34  27  75 NW13G23   29.75R WCI  25
WINFIELD       PTCLDY    35  27  72 NW14      29.78R WCI  26
$$

KSZ007>012-019>026-033>040-048>060-102>105-241400-
NORTHEAST KANSAS

CITY           SKY/WX    TMP DP  RH WIND       PRES   REMARKS
CONCORDIA      FRZ RAIN  30  30 100 NW17      29.73S FOG     WCI  18
EMPORIA        CLOUDY    35  30  82 NW16G25   29.70R WCI  25
LAWRENCE       CLOUDY    38  34  85 W16       29.64R WCI  29
MANHATTAN      CLOUDY    34  32  92 W7        29.70R FOG
OLATHE IND     CLOUDY    37  34  89 W13       29.63R WCI  29
OLATHE EXE     CLOUDY    37  35  92 W13G21    29.61R WCI  29
SALINA         CLOUDY    34  27  75 NW24      29.76R WCI  21
TOPEKA BILLARD CLOUDY    37  35  92 W10       29.66R WCI  30
TOPEKA FORBES  CLOUDY    37  32  82 W14       29.66R WCI  28
$$



USA.gov is the U.S. government's official web portal to all federal, state and local government web resources and services.